Location: Unspecified
(0.0000°N, 0.0000°E)
Time: 06:09:25
(UTC+00:00)

Transit 4A - Pass Details

Date: 07 October 2020
Orbit: 862 x 982 km, 66.8° (Epoch: 28 October)

Event Time Altitude Azimuth Distance (km) Brightness Sun altitude
Rises 17:07:21 0° 167° (SSE) 3,466 10.8 10.0°
Reaches altitude 10° 17:10:56 10° 145° (SE) 2,544 9.9 9.1°
Maximum altitude 17:14:16 15° 110° (ESE) 2,194 9.4 8.3°
Drops below altitude 10° 17:17:38 10° 75° (ENE) 2,583 9.6 7.5°
Sets 17:21:17 0° 53° (NE) 3,548 10.4 6.6°
